Change the Weather History Date:

Thursday, May 15, 2014

  Actual Average Record
Temperature  
Mean Temperature 76 °F -  
Max Temperature 87 °F 80 °F 87 °F (1998)
Min Temperature 66 °F 65 °F 64 °F (1999)
Cooling Degree Days 12    
Growing Degree Days 26 (Base 50)    
Moisture  
Dew Point 63 °F    
Average Humidity 67    
Maximum Humidity 88    
Minimum Humidity 36    
Precipitation  
Precipitation 0.00 in 0.36 in - ()
Sea Level Pressure  
Sea Level Pressure 29.97 in    
Wind  
Wind Speed 7 mph ()    
Max Wind Speed 15 mph    
Max Gust Speed -    
Visibility 7.7 miles    
Events Rain    
Averages and records for this station are not official NWS values.
T = Trace of Precipitation, MM = Missing Value Source: Averaged Metar Reports

Daily Weather History Graph

Daily Weather History Graph

Search for Another Location

Airport or City:

Trip Planner

Search our weather history database for the weather conditions in past years. The results will help you decide how hot, cold, wet, or windy it might be!

Date:

Astronomy

May. 15, 2014 Rise Set
Actual Time 5:15 AM CST 5:50 PM CST
Civil Twilight 4:53 AM CST 6:13 PM CST
Nautical Twilight 4:27 AM CST 6:39 PM CST
Astronomical Twilight 4:00 AM CST 7:05 PM CST
Moon 6:57 PM CST (5/15) 5:59 AM CST (5/15)
Length of Visible Light 13h 19m
Length of Day
12h 34m
Full, 99% of the Moon is Illuminated
May 15
Full
May 21
Last Quarter
May 28
New
Jun 5
First Quarter
Jun 12
Full

Hourly Weather History & Observations

Time (CST) Temp. Heat Index Dew Point Humidity Pressure Visibility Wind Dir Wind Speed Gust Speed Precip Events Conditions
12:00 AM 70 °F - 64 °F 75% 29.88 in 12 mi East 3.5 mph - - Rain Light Drizzle
12:00 AM 69.8 °F - 64.4 °F 83% 30.06 in 6.2 mi East 3.5 mph - N/A   Light Drizzle
1:00 AM 69.8 °F - 60.8 °F 73% 30.02 in 6.2 mi ENE 5.8 mph - N/A   Mostly Cloudy
2:00 AM 69.8 °F - 59.0 °F 68% 29.99 in - East 6.9 mph - N/A   Clear
3:00 AM 68 °F - 59 °F 65% 29.82 in 12 mi East 6.9 mph - -   Mostly Cloudy
3:00 AM 69.8 °F - 59.0 °F 68% 29.97 in - East 9.2 mph - N/A   Clear
4:00 AM 69.8 °F - 57.2 °F 64% 29.98 in - ENE 6.9 mph - N/A   Clear
5:00 AM 68.0 °F - 57.2 °F 68% 29.99 in - NE 10.4 mph - N/A   Clear
6:00 AM 71 °F - 59 °F 57% 29.87 in 12 mi East 9.2 mph - -   Clear
6:00 AM 71.6 °F - 59.0 °F 64% 30.01 in - East 9.2 mph - N/A   Clear
7:00 AM 75.2 °F - 59.0 °F 57% 30.03 in 6.2 mi East 5.8 mph - N/A   Scattered Clouds
8:00 AM 77.0 °F - 59.0 °F 54% 30.02 in 6.2 mi ESE 13.8 mph - N/A   Scattered Clouds
9:00 AM 79 °F - 60 °F 41% 29.88 in 12 mi ESE 15.0 mph - -   Scattered Clouds
9:00 AM 78.8 °F - 59.0 °F 51% 30.03 in 6.2 mi ESE 15.0 mph - N/A   Scattered Clouds
10:00 AM 82.4 °F 82.9 °F 60.8 °F 48% 30.03 in 6.2 mi ESE 13.8 mph - N/A   Mostly Cloudy
11:00 AM 82.4 °F 82.9 °F 60.8 °F 48% 30.04 in 6.2 mi ESE 12.7 mph - N/A   Scattered Clouds
12:00 PM 84 °F - 61 °F 36% 29.86 in 12 mi East 9.2 mph - -   Scattered Clouds
12:00 PM 84.2 °F 84.4 °F 60.8 °F 45% 30.02 in 6.2 mi East 9.2 mph - N/A   Scattered Clouds
2:00 PM 77.0 °F - 66.2 °F 69% 29.99 in 6.2 mi SSW 9.2 mph - N/A   Mostly Cloudy
3:00 PM 75 °F - 69 °F 75% 29.84 in 5 mi WSW 15.0 mph - - Rain Light Rain
3:00 PM 75.2 °F - 68.0 °F 78% 29.98 in 5.0 mi WSW 15.0 mph - N/A Rain Light Rain
4:00 PM 73.4 °F - 68.0 °F 83% 29.98 in 6.2 mi WSW 9.2 mph - N/A   Mostly Cloudy
5:00 PM 73.4 °F - 68.0 °F 83% 29.99 in 6.2 mi WSW 5.8 mph - N/A   Mostly Cloudy
6:00 PM 73 °F - 67 °F 76% 29.87 in 12 mi South 4.6 mph - -   Overcast
6:00 PM 73.4 °F - 68.0 °F 83% 30.01 in 6.2 mi South 4.6 mph - N/A   Mostly Cloudy
7:00 PM 73.4 °F - 64.4 °F 73% 30.03 in 6.2 mi East 4.6 mph - N/A   Scattered Clouds
8:00 PM 71.6 °F - 64.4 °F 78% 30.04 in 6.2 mi ENE 6.9 mph - N/A   Scattered Clouds
9:00 PM 72 °F - 63 °F 67% 29.92 in 12 mi ESE 5.8 mph - -   Scattered Clouds
10:00 PM 69.8 °F - 66.2 °F 88% 30.05 in 6.2 mi East 4.6 mph - N/A   Scattered Clouds
11:00 PM 69.8 °F - 66.2 °F 88% 30.05 in 6.2 mi NE 6.9 mph - N/A   Scattered Clouds